Simultaneous Nadir Overpasses (SNOs) Predictions

Prediction of SNOs between GOES-14 and AQUA Satellite Orbit:

Table of predicted SNOs for the next 14.0 days since TLE Epoch: 12/20/2019
Index Date Time (GOES-14) GOES-14 Lat,Lon AQUA Lat,Lon Distance(km) Time Diff (sec)
1 12/21/2019 20:32:34 0.01,-104.04 0.01,-103.95 9.91 80
2 12/23/2019 20:20:23 -0.00,-104.05 0.64,-101.00 346.58 80
3 12/24/2019 08:41:40 -0.01,-104.30 0.37,-106.17 212.69 80
4 12/26/2019 08:26:48 -0.00,-104.30 -0.21,-103.21 123.98 80
5 12/26/2019 20:48:12 0.01,-104.05 -0.92,-108.39 494.53 80
6 12/28/2019 08:14:37 0.00,-104.30 -0.85,-100.25 460.70 80
7 12/28/2019 20:36:01 0.01,-104.05 -0.28,-105.44 157.49 80
8 12/30/2019 20:26:30 0.01,-104.06 0.37,-102.48 179.78 80
9 12/31/2019 08:47:46 -0.02,-104.33 0.69,-107.65 377.66 80
10 01/02/2020 08:35:35 -0.02,-104.34 0.04,-104.69 40.24 80




NCC Satellite Simultaneous Nadir Overpasses (SNOs) Prediction Service
